Orlando International, FL

9:21 PM EDT on June 26, 2017 (GMT -0400)
Orlando International

Weather History for KMCO - April, 2014

Change the Weather History Date:

Thursday, April 10, 2014

  Actual Average Record
Temperature  
Mean Temperature 69 °F 70 °F  
Max Temperature 81 °F 82 °F 95 °F (1908)
Min Temperature 56 °F 59 °F 42 °F (1916)
Degree Days  
Heating Degree Days 0 1  
Month to date heating degree days 0 10  
Since 1 July heating degree days 406 568  
Cooling Degree Days 4 6  
Month to date cooling degree days 74 53  
Year to date cooling degree days 331 275  
Growing Degree Days 18 (Base 50)    
Moisture  
Dew Point 52 °F    
Average Humidity 62    
Maximum Humidity 86    
Minimum Humidity 37    
Precipitation  
Precipitation 0.00 in 0.10 in 1.57 in (1956)
Month to date precipitation 0.92 1.03  
Year to date precipitation 10.48 9.53  
Sea Level Pressure  
Sea Level Pressure 30.25 in    
Wind  
Wind Speed 6 mph (East)    
Max Wind Speed 16 mph    
Max Gust Speed 20 mph    
Visibility 10 miles    
Events      
T = Trace of Precipitation, MM = Missing Value Source: NWS Daily Summary

Daily Weather History Graph

Daily Weather History Graph

Search for Another Location

Airport or City:

Trip Planner

Search our weather history database for the weather conditions in past years. The results will help you decide how hot, cold, wet, or windy it might be!

Date:

Astronomy

Apr. 10, 2014 Rise Set
Actual Time 7:05 AM EDT 7:48 PM EDT
Civil Twilight 6:41 AM EDT 8:12 PM EDT
Nautical Twilight 6:13 AM EDT 8:40 PM EDT
Astronomical Twilight 5:44 AM EDT 9:09 PM EDT
Moon 3:50 PM EDT (4/10) 4:05 AM EDT (4/10)
Length of Visible Light 13h 30m
Length of Day
12h 42m
Waxing Gibbous, 79% of the Moon is Illuminated
Apr 10
Waxing Gibbous
Apr 15
Full
Apr 22
Last Quarter
Apr 29
New
May 6
First Quarter

Hourly Weather History & Observations

Time (EDT) Temp. Dew Point Humidity Pressure Visibility Wind Dir Wind Speed Gust Speed Precip Events Conditions
12:53 AM 61.0 °F 52.0 °F 72% 30.20 in 10.0 mi West 3.5 mph - N/A   Clear
1:53 AM 60.1 °F 53.1 °F 78% 30.20 in 10.0 mi West 4.6 mph - N/A   Clear
2:53 AM 60.1 °F 54.0 °F 80% 30.19 in 10.0 mi Calm Calm - N/A   Clear
3:53 AM 60.1 °F 54.0 °F 80% 30.19 in 10.0 mi Calm Calm - N/A   Clear
4:53 AM 59.0 °F 54.0 °F 83% 30.20 in 10.0 mi Calm Calm - N/A   Clear
5:53 AM 57.9 °F 53.1 °F 84% 30.22 in 10.0 mi NW 3.5 mph - N/A   Clear
6:53 AM 57.9 °F 53.1 °F 84% 30.25 in 10.0 mi NW 3.5 mph - N/A   Clear
7:53 AM 60.1 °F 55.0 °F 83% 30.27 in 10.0 mi North 4.6 mph - N/A   Clear
8:53 AM 64.9 °F 55.0 °F 70% 30.27 in 10.0 mi North 5.8 mph - N/A   Clear
9:53 AM 70.0 °F 55.0 °F 59% 30.28 in 10.0 mi North 4.6 mph - N/A   Clear
10:53 AM 73.9 °F 46.9 °F 38% 30.30 in 10.0 mi Calm Calm - N/A   Clear
11:53 AM 75.9 °F 48.0 °F 37% 30.30 in 10.0 mi East 4.6 mph - N/A   Partly Cloudy
12:53 PM 78.1 °F 50.0 °F 37% 30.28 in 10.0 mi East 6.9 mph - N/A   Scattered Clouds
1:53 PM 79.0 °F 50.0 °F 36% 30.27 in 10.0 mi ESE 9.2 mph - N/A   Mostly Cloudy
2:53 PM 79.0 °F 51.1 °F 38% 30.24 in 10.0 mi East 9.2 mph - N/A   Scattered Clouds
3:53 PM 78.1 °F 51.1 °F 39% 30.23 in 10.0 mi ESE 12.7 mph - N/A   Mostly Cloudy
4:53 PM 75.9 °F 51.1 °F 42% 30.22 in 10.0 mi SE 10.4 mph - N/A   Mostly Cloudy
5:53 PM 75.9 °F 50.0 °F 40% 30.22 in 10.0 mi ESE 12.7 mph - N/A   Mostly Cloudy
6:53 PM 73.0 °F 50.0 °F 44% 30.23 in 10.0 mi East 12.7 mph - N/A   Mostly Cloudy
7:53 PM 70.0 °F 53.1 °F 55% 30.24 in 10.0 mi East 12.7 mph - N/A   Mostly Cloudy
8:53 PM 68.0 °F 54.0 °F 61% 30.26 in 10.0 mi ESE 8.1 mph - N/A   Mostly Cloudy
9:53 PM 64.9 °F 55.0 °F 70% 30.28 in 10.0 mi East 4.6 mph - N/A   Scattered Clouds
10:53 PM 64.9 °F 55.0 °F 70% 30.28 in 10.0 mi Calm Calm - N/A   Scattered Clouds
11:53 PM 64.9 °F 53.1 °F 65% 30.28 in 10.0 mi ESE 3.5 mph - N/A   Partly Cloudy